Weather in Zhuderskiy

Russia / Oryol Oblast     53°15′21″N   35°17′36″E
temp.,
°C
wind,
m/s
gust,
m/s
humid.,
%
clouds,
%
prec.,
mm/h
press.,
hPa
HPBL,
m
13 may, thu
thu1300:00+6ese310966 0.0 1016236
03:00+6e4119668 0.0 1015315
06:00+7e4119792 0.0 1014373
09:00+9ese41096100 1.2 1014618
12:00+11sse588615 0.8 1014929
15:00+14s686038 1.5 10131717
18:00+13s4872100 0.9 10131074
21:00+9sse35907 0.9 101492
14 may, fri
fri1400:00+8se34911 0.0 101555
03:00+7se3693100 0.0 1015106
06:00+9ese398782 0.0 1015199
09:00+15se4877100 0.0 1014484
12:00+19ese5769100 0.1 1013763
15:00+19sse6107791 2.7 10101118
18:00+19sse6128335 2.9 1008973
21:00+15sse41196100 8.7 1009327
15 may, sat
sat1500:00+13sse24975 2.6 100969
03:00+12sse22955 2.6 100935
06:00+12sse259411 0.0 100997
09:00+17s58854 0.9 1009476
12:00+19ssw69729 1.4 10091388
15:00+18ssw7107216 3.6 10091484
18:00+17ssw598119 1.3 1010923
21:00+13ssw399569 1.9 1011242
16 may, sun
sun1600:00+11ssw310965 0.0 1011263
03:00+10ssw310965 0.0 1013242
06:00+11ssw310966 0.0 1013317
09:00+15sw478139 0.0 1014717
12:00+19sw456453 0.0 10141312
15:00+19sw3564100 0.1 10141222
18:00+19ssw246717 0.1 1013706
21:00+14ssw2286100 0.1 101412
17 may, mon
mon1700:00+13e2286100 0.0 101412
03:00+12e229132 0.0 101431
06:00+13e398986 0.0 1013184
09:00+18e5107237 0.0 1012444
12:00+22e696491 0.0 1010924
15:00+25se695657 0.0 10091265
18:00+23ese61167100 0.0 1007945
21:00+19ese5157885 0.0 1007523